This is the latest recevied weather packets stored in our database for station/object KQ4UPF. If no packets are shown the sender has not sent any weather packets the latest 10 day(s).
| Time | Temp. | Humidity | Pressure | Rain* | Wind** | Luminosity | Snow |
|---|---|---|---|---|---|---|---|
| 1777999715 | 24.44° C | 46% | 1015.4 hPa | 0 mm | - | 728 W/m² | - |
| 1777999411 | 24.44° C | 42% | 1015.3 hPa | 0 mm | - | 724 W/m² | - |
| 1777999110 | 24.44° C | 42% | 1015.1 hPa | 0 mm | - | 845 W/m² | - |
| 1777998808 | 24.44° C | 47% | 1015.4 hPa | 0 mm | - | 909 W/m² | - |
| 1777998506 | 24.44° C | 48% | 1015.2 hPa | 0 mm | - | 932 W/m² | - |
| 1777998202 | 24.44° C | 50% | 1015.2 hPa | 0 mm | - | 925 W/m² | - |
| 1777997899 | 23.89° C | 55% | 1015.3 hPa | 0 mm | - | 908 W/m² | - |
| 1777997596 | 23.89° C | 52% | 1015.4 hPa | 0 mm | - | 825 W/m² | - |
| 1777997294 | 23.89° C | 49% | 1015.4 hPa | 0 mm | - | 874 W/m² | - |
| 1777996992 | 24.44° C | 46% | 1015.3 hPa | 0 mm | - | 880 W/m² | - |
| 1777996688 | 23.89° C | 52% | 1015.3 hPa | 0 mm | - | 868 W/m² | - |
| 1777996383 | 23.89° C | 52% | 1015.3 hPa | 0 mm | - | 861 W/m² | - |
| 1777996080 | 23.89° C | 60% | 1015.4 hPa | 0 mm | - | 842 W/m² | - |
| 1777995777 | 23.33° C | 56% | 1015.3 hPa | 0 mm | - | 834 W/m² | - |
| 1777995473 | 23.33° C | 59% | 1015.5 hPa | 0 mm | - | 818 W/m² | - |
| 1777995170 | 23.33° C | 57% | 1015.4 hPa | 0 mm | - | 824 W/m² | - |
| 1777994868 | 23.33° C | 58% | 1015.2 hPa | 0 mm | - | 795 W/m² | - |
| 1777994564 | 23.33° C | 67% | 1015.3 hPa | 0 mm | - | 790 W/m² | - |
| 1777994264 | 23.33° C | 58% | 1015.2 hPa | 0 mm | - | 698 W/m² | - |
| 1777993962 | 23.33° C | 58% | 1015.5 hPa | 0 mm | - | 789 W/m² | - |
| 1777993659 | 23.89° C | 60% | 1015.6 hPa | 0 mm | - | 758 W/m² | - |
| 1777993356 | 23.33° C | 62% | 1015.3 hPa | 0 mm | - | 740 W/m² | - |
| 1777993056 | 22.78° C | 58% | 1015.5 hPa | 0 mm | - | 725 W/m² | - |
| 1777992754 | 22.78° C | 59% | 1015.4 hPa | 0 mm | - | 706 W/m² | - |
| 1777992452 | 22.78° C | 58% | 1015.4 hPa | 0 mm | - | 690 W/m² | - |
* Rain latest hour (hover to see other rain measurements)
** Current wind speed in m/s (hover to see current wind gust speed)